Sheridan, WY

8:02 AM MDT on August 17, 2017 (GMT -0600)
Sheridan County

Weather History for KSHR - September, 2014

Change the Weather History Date:

Monday, September 22, 2014

  Actual Average Record
Temperature  
Mean Temperature 65 °F 55 °F  
Max Temperature 80 °F 71 °F 92 °F (1936)
Min Temperature 50 °F 39 °F 24 °F (1995)
Degree Days  
Heating Degree Days 0 10  
Month to date heating degree days 195 143  
Since 1 July heating degree days 245 205  
Cooling Degree Days 0 0  
Month to date cooling degree days 15 26  
Year to date cooling degree days 333 416  
Growing Degree Days 15 (Base 50)    
Moisture  
Dew Point 47 °F    
Average Humidity 58    
Maximum Humidity 83    
Minimum Humidity 32    
Precipitation  
Precipitation 0.00 in 0.05 in 0.71 in (2000)
Month to date precipitation 1.54 0.99  
Year to date precipitation 12.61 11.04  
Sea Level Pressure  
Sea Level Pressure 29.91 in    
Wind  
Wind Speed 5 mph (WSW)    
Max Wind Speed 21 mph    
Max Gust Speed 27 mph    
Visibility 10 miles    
Events      
T = Trace of Precipitation, MM = Missing Value Source: NWS Daily Summary

Daily Weather History Graph

Daily Weather History Graph

Search for Another Location

Airport or City:

Trip Planner

Search our weather history database for the weather conditions in past years. The results will help you decide how hot, cold, wet, or windy it might be!

Date:

Astronomy

Sep. 22, 2014 Rise Set
Actual Time 6:55 AM MDT 7:05 PM MDT
Civil Twilight 6:25 AM MDT 7:34 PM MDT
Nautical Twilight 5:51 AM MDT 8:08 PM MDT
Astronomical Twilight 5:16 AM MDT 8:43 PM MDT
Moon 5:23 AM MDT (9/22) 6:15 PM MDT (9/22)
Length of Visible Light 13h 08m
Length of Day
12h 10m
Waning Crescent, 2% of the Moon is Illuminated
Sep 22
Waning Crescent
Sep 24
New
Oct 1
First Quarter
Oct 8
Full
Oct 15
Last Quarter

Hourly Weather History & Observations

Time (MDT) Temp. Dew Point Humidity Pressure Visibility Wind Dir Wind Speed Gust Speed Precip Events Conditions
12:53 AM 55.9 °F 45.0 °F 67% 29.99 in 10.0 mi SSW 8.1 mph - N/A   Clear
1:53 AM 53.6 °F 44.6 °F 72% 30.06 in 10.0 mi South 4.6 mph - N/A   Clear
2:53 AM 55.0 °F 44.1 °F 67% 29.96 in 10.0 mi South 5.8 mph - N/A   Clear
3:53 AM 54.0 °F 45.0 °F 72% 29.95 in 10.0 mi Calm Calm - N/A   Clear
4:53 AM 53.1 °F 46.0 °F 77% 29.95 in 10.0 mi WNW 4.6 mph - N/A   Partly Cloudy
5:53 AM 51.1 °F 46.0 °F 83% 29.96 in 10.0 mi WSW 4.6 mph - N/A   Clear
6:53 AM 52.0 °F 45.0 °F 77% 29.95 in 10.0 mi Calm Calm - N/A   Clear
7:53 AM 55.0 °F 46.9 °F 74% 29.94 in 10.0 mi Calm Calm - N/A   Clear
8:53 AM 59.0 °F 46.9 °F 64% 29.93 in 10.0 mi Calm Calm - N/A   Clear
9:53 AM 64.0 °F 48.0 °F 56% 29.91 in 10.0 mi Calm Calm - N/A   Clear
10:53 AM 71.1 °F 46.9 °F 42% 29.89 in 10.0 mi NE 3.5 mph - N/A   Clear
11:53 AM 73.9 °F 48.0 °F 40% 29.88 in 10.0 mi Calm Calm - N/A   Clear
12:53 PM 75.9 °F 46.9 °F 36% 29.88 in 10.0 mi NNW 3.5 mph - N/A   Clear
1:53 PM 79.0 °F 48.0 °F 34% 29.86 in 10.0 mi North 8.1 mph - N/A   Clear
2:53 PM 79.0 °F 46.9 °F 32% 29.86 in 10.0 mi NNW 8.1 mph - N/A   Scattered Clouds
3:53 PM 70.0 °F 53.1 °F 55% 29.88 in 10.0 mi WNW 15.0 mph - N/A   Scattered Clouds
4:53 PM 70.0 °F 48.9 °F 47% 29.88 in 10.0 mi WSW 13.8 mph - N/A   Overcast
5:53 PM 71.1 °F 46.9 °F 42% 29.88 in 10.0 mi SW 19.6 mph 26.5 mph N/A   Overcast
6:53 PM 66.9 °F 48.9 °F 52% 29.88 in 10.0 mi Calm Calm - N/A   Partly Cloudy
7:53 PM 62.1 °F 50.0 °F 65% 29.90 in 10.0 mi Calm Calm - N/A   Overcast
8:53 PM 59.0 °F 48.9 °F 69% 29.91 in 10.0 mi WSW 5.8 mph - N/A   Clear
9:53 PM 57.0 °F 48.0 °F 72% 29.91 in 10.0 mi South 5.8 mph - N/A   Clear
10:53 PM 54.0 °F 48.0 °F 80% 29.89 in 10.0 mi SSW 4.6 mph - N/A   Clear
11:53 PM 53.1 °F 46.9 °F 80% 29.88 in 10.0 mi West 5.8 mph - N/A   Clear